DW2465 Weather Reports


time (UTC)temp
F
wind
direction
speed
knots
gust
knots
rain 1hr
in
rain 24hr
in
rain mn
in
humidity
%
barometer
mb
20260903194533 83 101 0.0 0.0 0.00 0.09 0.09 69 1006.1
20260903193056 79 158 0.0 0.0 0.07 0.09 0.09 81 1006.0
20260903191601 78 115 0.0 0.0 0.09 0.09 0.09 86 1006.3
20260903190053 77 78 0.0 0.0 0.09 0.09 0.09 88 1005.9
20260903184550 77 78 0.0 0.0 0.09 0.09 0.09 83 1006.1
20260903183052 79 102 0.0 0.0 0.02 0.02 0.02 76 1006.1
20260903181547 81 150 0.0 0.0 0.00 0.00 0.00 67 1006.2
20260903180045 82 103 0.0 0.0 0.00 0.00 0.00 64 1006.9
20260903174543 82 107 0.0 0.0 0.00 0.00 0.00 65 1006.8
20260903173041 83 165 0.0 0.0 0.00 0.00 0.00 64 1006.8
20260903171550 83 171 0.0 0.0 0.00 0.00 0.00 61 1007.1
20260903170043 83 91 0.0 0.0 0.00 0.00 0.00 63 1007.2
20260903164533 82 108 0.0 0.0 0.00 0.00 0.00 64 1007.5
20260903163037 81 131 0.0 0.0 0.00 0.00 0.00 66 1007.3
20260903161528 80 126 0.0 0.0 0.00 0.00 0.00 66 1007.5
20260903160024 81 117 0.0 0.0 0.00 0.00 0.00 65 1007.4
20260903154523 80 107 0.0 0.0 0.00 0.00 0.00 66 1007.5
20260903153020 80 109 0.0 0.0 0.00 0.00 0.00 68 1007.6
20260903151517 79 126 0.0 0.0 0.00 0.00 0.00 70 1007.6
20260903150020 79 142 0.0 0.0 0.00 0.00 0.00 68 1007.5
20260903144514 79 111 0.0 0.0 0.00 0.00 0.00 69 1007.5
20260903143011 78 139 0.0 0.0 0.00 0.00 0.00 71 1007.3
20260903141515 78 119 0.0 0.0 0.00 0.00 0.00 73 1007.6
20260903140006 77 76 0.0 0.0 0.00 0.00 0.00 75 1007.6
20260903134535 77 81 0.0 0.0 0.00 0.00 0.00 77 1007.7
20260903133034 76 136 0.0 0.0 0.00 0.00 0.00 81 1007.6
20260903131609 74 137 0.0 0.0 0.00 0.00 0.00 84 1007.8
20260903130100 74 144 0.0 0.0 0.00 0.00 0.00 85 1007.9
20260903124611 73 165 0.0 0.0 0.00 0.00 0.00 85 1007.3
20260903123056 73 169 0.0 0.0 0.00 0.00 0.00 86 1007.0
20260903121555 73 169 0.0 0.0 0.00 0.00 0.00 86 1006.9
20260903120101 73 115 0.0 0.0 0.00 0.00 0.00 87 1007.1
20260903114550 73 161 0.0 0.0 0.00 0.00 0.00 88 1007.4
20260903113056 73 175 0.0 0.0 0.00 0.00 0.00 89 1007.7
20260903111549 73 121 0.0 0.0 0.00 0.00 0.00 89 1007.6
20260903110049 73 178 0.0 0.0 0.00 0.00 0.00 89 1007.4
20260903104518 73 163 0.0 0.0 0.00 0.00 0.00 89 1007.9
20260903103017 73 138 0.0 0.0 0.00 0.00 0.00 88 1007.9
20260903101535 73 119 0.0 0.0 0.00 0.00 0.00 88 1007.6
20260903100013 73 103 0.0 0.0 0.00 0.00 0.00 88 1007.6
20260903094513 73 86 0.0 0.0 0.00 0.00 0.00 88 1007.8
20260903093013 73 100 0.0 0.0 0.00 0.00 0.00 88 1007.4
20260903091510 73 113 0.0 0.0 0.00 0.00 0.00 87 1007.4
20260903090010 73 113 0.0 0.0 0.00 0.00 0.00 87 1007.5
20260903084523 73 113 0.0 0.0 0.00 0.00 0.00 86 1007.5
20260903083017 73 101 0.0 0.0 0.00 0.00 0.00 86 1007.5
20260903081503 74 121 0.0 0.0 0.00 0.00 0.00 86 1007.8
20260903080002 73 123 0.0 0.0 0.00 0.00 0.00 86 1007.9
20260903074606 74 76 0.0 0.0 0.00 0.00 0.00 85 1008.0
20260903073059 74 76 0.0 0.0 0.00 0.00 0.00 85 1007.9
20260903071555 74 74 0.0 0.0 0.00 0.00 0.00 85 1008.0
20260903070053 74 68 0.0 0.0 0.00 0.01 0.00 84 1008.2
20260903064600 74 68 0.0 0.0 0.00 0.01 0.00 83 1008.4
20260903063051 75 68 0.0 0.0 0.00 0.01 0.00 82 1008.3
20260903061546 75 68 0.0 0.0 0.00 0.01 0.00 82 1008.4
20260903060047 75 88 0.0 0.0 0.00 0.01 0.00 82 1008.4
20260903054543 75 82 0.0 0.0 0.00 0.01 0.00 80 1008.5
20260903053053 75 48 0.0 0.0 0.00 0.01 0.00 79 1008.5
20260903051542 75 45 0.0 0.0 0.00 0.01 0.00 77 1008.6
20260903050137 75 45 0.0 0.0 0.00 0.01 0.01 76 1008.6
20260903044538 75 44 0.0 0.0 0.00 0.01 0.01 75 1008.7
20260903043036 75 44 0.0 0.0 0.00 0.01 0.01 74 1008.7
20260903041532 76 44 0.0 0.0 0.00 0.01 0.01 73 1008.7
20260903040039 76 44 0.0 0.0 0.00 0.01 0.01 72 1009.0
20260903034530 76 40 0.0 0.0 0.00 0.01 0.01 71 1008.7
20260903033030 77 55 0.0 0.0 0.00 0.01 0.01 70 1008.9
20260903031601 77 55 0.0 0.0 0.00 0.01 0.01 70 1008.8
20260903030059 77 54 0.0 0.0 0.00 0.01 0.01 70 1008.8
20260903024556 77 30 0.0 0.0 0.00 0.01 0.01 71 1008.8
20260903023056 77 25 0.0 0.0 0.00 0.01 0.01 73 1008.6
20260903021557 77 23 0.0 0.0 0.00 0.01 0.01 75 1008.7
20260903020055 78 11 0.0 0.0 0.00 0.01 0.01 76 1008.7
20260903014555 79 149 0.0 0.0 0.00 0.01 0.01 72 1008.5
20260903013052 79 149 0.0 0.0 0.00 0.01 0.01 70 1008.4
20260903011553 80 149 0.0 0.0 0.00 0.01 0.01 68 1008.4
20260903010051 82 149 0.0 0.0 0.00 0.01 0.01 65 1008.2
20260903004555 83 149 0.0 0.0 0.00 0.01 0.01 62 1008.0
20260903003048 84 149 0.0 0.0 0.00 0.01 0.01 60 1008.3
20260903001600 85 149 0.0 0.0 0.00 0.01 0.01 59 1008.1
20260903000045 85 149 0.0 0.0 0.00 0.01 0.01 57 1008.2
20260902234546 86 149 0.0 0.0 0.00 0.01 0.01 55 1008.2
20260902233043 86 149 0.0 0.0 0.00 0.01 0.01 56 1008.2
20260902231543 86 148 0.0 0.0 0.00 0.01 0.01 54 1008.2
20260902230041 87 150 0.0 0.0 0.00 0.01 0.01 54 1008.3
20260902224547 87 150 0.0 0.0 0.00 0.01 0.01 53 1008.3
20260902223035 87 150 0.0 0.0 0.00 0.01 0.01 55 1008.4
20260902221538 86 151 0.0 0.0 0.00 0.01 0.01 54 1008.4
20260902220039 86 150 0.0 0.0 0.00 0.01 0.01 55 1008.4
20260902214531 86 159 0.0 0.0 0.00 0.01 0.01 54 1008.5
20260902213026 86 159 0.0 0.0 0.00 0.01 0.01 54 1008.7
20260902211523 85 153 0.0 0.0 0.00 0.01 0.01 57 1008.9
20260902210023 85 148 0.0 0.0 0.00 0.01 0.01 56 1008.8
20260902204523 85 135 0.0 0.0 0.00 0.01 0.01 56 1008.7
20260902203050 84 157 0.0 0.0 0.00 0.01 0.01 57 1008.8
20260902201548 83 135 0.0 0.0 0.00 0.01 0.01 57 1009.0
20260902200042 83 131 0.0 0.0 0.00 0.01 0.01 58 1009.2